SAUDISAT 1C (SO-50) (27607 NORAD) Tracking and Keplerian Element Data

This shows tracking and keplerian element data for the satellite.

Feedback or suggestion? Click here.




ElementValue
Catalog27607
NameSAUDISAT 1C (SO-50)
Epoch Orbit854
Epoch Day262.15465022
Epoch Year2021
RAAN51.8012
Inclination64.5557
Eccentricity0.0052283
Argument of Perigee353.1784
Mean Anonmoly6.86
Mean Motion14.75788963
Decay Rate2E-08
L11 27607U 02058C 21262.15465022 .00000002 00000-0 20825-4 0 9998
L22 27607 64.5557 51.8012 0052283 353.1784 6.8600 14.75788963 8549

Live tracking and technical data element details for SAUDISAT 1C (SO-50) (NORAD 27607). SAUDISAT 1C (SO-50) can be tracked NOW for your location showing map with azimuth and elevation plus other details from your city location.

Track the satellite on the map from your city or location and see movement details for azimuth, elevation, latitude, longitude, range, height, and movement on the map or in text.







IsCatalogInMostPopularTable: catalog: 27607, numindb: 553
Update: records affected: 1



GetName: 27607 SAUDISAT 1C (SO-50)

Hit Count: updated at: Sat, 25 Sep 2021 23:41:46 GMT